Time,TemperatureF,DewpointF,PressureIn,WindDirection,WindDirectionDegrees,WindSpeedMPH,WindSpeedGustMPH,Humidity,HourlyPrecipIn,Conditions,Clouds,dailyrainin,SoftwareType,DateUTC
2013-05-15 00:01:00,64.9,48.8,29.91,SSE,153,0.0,0.0,56,0.00,,---,0.00,VWS V14.01,2013-05-15 07:01:00,
2013-05-15 00:06:00,64.7,48.7,29.91,SE,129,0.0,0.0,56,0.00,,---,0.00,VWS V14.01,2013-05-15 07:06:00,
2013-05-15 00:11:00,64.5,48.5,29.91,SE,146,0.0,0.0,56,0.00,,---,0.00,VWS V14.01,2013-05-15 07:11:00,
2013-05-15 00:16:00,64.4,48.4,29.91,SE,144,0.0,0.0,56,0.00,,---,0.00,VWS V14.01,2013-05-15 07:16:00,
2013-05-15 00:21:00,64.2,48.7,29.91,SSE,148,0.0,0.0,57,0.00,,---,0.00,VWS V14.01,2013-05-15 07:21:00,
2013-05-15 00:26:00,64.0,48.0,29.92,SE,140,0.0,0.0,56,0.00,,---,0.00,VWS V14.01,2013-05-15 07:26:00,
2013-05-15 00:31:00,63.9,48.4,29.92,SE,129,0.0,0.0,57,0.00,,---,0.00,VWS V14.01,2013-05-15 07:31:00,
2013-05-15 00:36:00,63.7,48.2,29.92,SE,140,0.0,0.0,57,0.00,,---,0.00,VWS V14.01,2013-05-15 07:36:00,
2013-05-15 00:41:00,63.6,48.1,29.92,SE,128,0.0,0.0,57,0.00,,---,0.00,VWS V14.01,2013-05-15 07:41:00,
2013-05-15 00:46:00,63.4,48.4,29.92,ESE,123,0.0,0.0,58,0.00,,---,0.00,VWS V14.01,2013-05-15 07:46:00,
2013-05-15 00:51:00,63.2,48.2,29.92,SE,130,0.0,0.0,58,0.00,,---,0.00,VWS V14.01,2013-05-15 07:51:00,
2013-05-15 00:56:00,62.9,48.4,29.92,SSE,147,0.0,0.0,59,0.00,,---,0.00,VWS V14.01,2013-05-15 07:56:00,
2013-05-15 01:01:00,62.6,47.6,29.92,SSE,159,0.0,0.0,58,0.00,,---,0.00,VWS V14.01,2013-05-15 08:01:00,
2013-05-15 01:51:00,60.7,46.8,29.92,SE,141,0.0,0.0,60,0.00,,---,0.00,VWS V14.01,2013-05-15 08:51:00,
2013-05-15 01:56:00,60.6,47.1,29.92,SE,132,0.0,0.0,61,0.00,,---,0.00,VWS V14.01,2013-05-15 08:56:00,
2013-05-15 02:01:00,60.4,46.9,29.92,SE,142,0.0,0.0,61,0.00,,---,0.00,VWS V14.01,2013-05-15 09:01:00,
2013-05-15 02:06:00,60.4,46.5,29.92,SE,128,0.0,0.0,60,0.00,,---,0.00,VWS V14.01,2013-05-15 09:06:00,
2013-05-15 02:11:00,60.3,46.8,29.92,SSE,161,0.0,0.0,61,0.00,,---,0.00,VWS V14.01,2013-05-15 09:11:00,
2013-05-15 02:16:00,60.3,46.8,29.92,SE,141,0.0,0.0,61,0.00,,---,0.00,VWS V14.01,2013-05-15 09:16:00,
2013-05-15 02:21:00,60.2,46.7,29.92,SE,134,0.0,0.0,61,0.00,,---,0.00,VWS V14.01,2013-05-15 09:21:00,
2013-05-15 02:27:00,60.1,46.6,29.92,ESE,118,0.0,0.0,61,0.00,,---,0.00,VWS V14.01,2013-05-15 09:27:00,
2013-05-15 02:33:00,59.8,46.8,29.92,SE,132,0.0,0.0,62,0.00,,---,0.00,VWS V14.01,2013-05-15 09:33:00,
2013-05-15 02:38:00,59.6,47.0,29.92,ESE,116,0.0,0.0,63,0.00,,---,0.00,VWS V14.01,2013-05-15 09:38:00,
2013-05-15 02:43:00,59.5,46.9,29.92,SSE,156,0.0,0.0,63,0.00,,---,0.00,VWS V14.01,2013-05-15 09:43:00,
2013-05-15 02:48:00,59.3,46.7,29.92,East,89,0.0,0.0,63,0.00,,---,0.00,VWS V14.01,2013-05-15 09:48:00,
2013-05-15 02:53:00,59.0,46.8,29.92,East,92,0.0,0.0,64,0.00,,---,0.00,VWS V14.01,2013-05-15 09:53:00,
2013-05-15 02:58:00,59.0,46.4,29.92,ESE,103,0.0,0.0,63,0.00,,---,0.00,VWS V14.01,2013-05-15 09:58:00,
2013-05-15 03:03:00,59.0,46.8,29.92,SSE,149,0.0,0.0,64,0.00,,---,0.00,VWS V14.01,2013-05-15 10:03:00,
2013-05-15 03:08:00,59.0,47.3,29.92,SE,132,0.0,0.0,65,0.00,,---,0.00,VWS V14.01,2013-05-15 10:08:00,
2013-05-15 03:13:00,58.7,46.6,29.92,SE,136,0.0,0.0,64,0.00,,---,0.00,VWS V14.01,2013-05-15 10:13:00,
2013-05-15 03:18:00,58.5,46.8,29.92,SE,126,0.0,0.0,65,0.00,,---,0.00,VWS V14.01,2013-05-15 10:18:00,
2013-05-15 03:23:00,58.3,46.6,29.92,ESE,105,0.0,0.0,65,0.00,,---,0.00,VWS V14.01,2013-05-15 10:23:00,
2013-05-15 03:28:00,58.2,46.5,29.92,SE,142,0.0,0.0,65,0.00,,---,0.00,VWS V14.01,2013-05-15 10:28:00,
2013-05-15 03:34:00,58.1,46.4,29.92,SE,128,0.0,0.0,65,0.00,,---,0.00,VWS V14.01,2013-05-15 10:34:00,
2013-05-15 03:45:00,57.9,46.6,29.92,North,0,0.0,0.0,66,0.00,,---,0.00,VWS V14.01,2013-05-15 10:45:00,
2013-05-15 03:50:00,57.7,46.4,29.92,ESE,116,0.0,0.0,66,0.00,,---,0.00,VWS V14.01,2013-05-15 10:50:00,
2013-05-15 03:55:00,57.7,46.4,29.92,SSE,157,0.0,0.0,66,0.00,,---,0.00,VWS V14.01,2013-05-15 10:55:00,
2013-05-15 04:00:00,57.6,46.7,29.93,SE,125,0.0,0.0,67,0.00,,---,0.00,VWS V14.01,2013-05-15 11:00:00,
2013-05-15 04:05:00,57.5,46.2,29.93,SSE,148,0.0,0.0,66,0.00,,---,0.00,VWS V14.01,2013-05-15 11:05:00,
2013-05-15 04:10:00,57.5,46.2,29.93,SSE,151,0.0,0.0,66,0.00,,---,0.00,VWS V14.01,2013-05-15 11:10:00,
2013-05-15 04:15:00,57.4,46.2,29.93,SE,146,0.0,0.0,66,0.00,,---,0.00,VWS V14.01,2013-05-15 11:15:00,
2013-05-15 04:20:00,57.3,46.0,29.93,SSE,165,0.0,0.0,66,0.00,,---,0.00,VWS V14.01,2013-05-15 11:20:00,
2013-05-15 04:25:00,57.3,46.5,29.94,SE,129,0.0,0.0,67,0.00,,---,0.00,VWS V14.01,2013-05-15 11:25:00,
2013-05-15 04:30:00,57.1,46.7,29.93,SE,140,0.0,0.0,68,0.00,,---,0.00,VWS V14.01,2013-05-15 11:30:00,
2013-05-15 04:35:00,57.0,46.2,29.93,ESE,117,0.0,0.0,67,0.00,,---,0.00,VWS V14.01,2013-05-15 11:35:00,
2013-05-15 04:41:00,56.9,46.1,29.93,SE,127,0.0,1.0,67,0.00,,---,0.00,VWS V14.01,2013-05-15 11:41:00,
2013-05-15 04:46:00,56.8,46.4,29.94,South,171,0.0,3.0,68,0.00,,---,0.00,VWS V14.01,2013-05-15 11:46:00,
2013-05-15 04:51:00,56.7,46.3,29.94,SE,140,0.0,0.0,68,0.00,,---,0.00,VWS V14.01,2013-05-15 11:51:00,
2013-05-15 04:56:00,56.5,46.1,29.94,SSE,150,0.0,0.0,68,0.00,,---,0.00,VWS V14.01,2013-05-15 11:56:00,
2013-05-15 05:01:00,56.4,46.4,29.94,SSE,150,0.0,0.0,69,0.00,,---,0.00,VWS V14.01,2013-05-15 12:01:00,
2013-05-15 05:06:00,56.2,46.2,29.94,ESE,119,0.0,0.0,69,0.00,,---,0.00,VWS V14.01,2013-05-15 12:06:00,
2013-05-15 05:11:00,56.1,45.7,29.94,SE,135,0.0,0.0,68,0.00,,---,0.00,VWS V14.01,2013-05-15 12:11:00,
2013-05-15 05:16:00,56.1,45.7,29.94,SSE,153,0.0,0.0,68,0.00,,---,0.00,VWS V14.01,2013-05-15 12:16:00,
2013-05-15 05:22:00,56.1,46.1,29.94,ESE,119,0.0,0.0,69,0.00,,---,0.00,VWS V14.01,2013-05-15 12:22:00,
2013-05-15 05:27:00,56.0,45.6,29.94,SSE,150,0.0,0.0,68,0.00,,---,0.00,VWS V14.01,2013-05-15 12:27:00,
2013-05-15 05:32:00,56.0,45.6,29.95,SSE,152,0.0,1.0,68,0.00,,---,0.00,VWS V14.01,2013-05-15 12:32:00,
2013-05-15 05:37:00,56.0,46.0,29.94,SSE,155,0.0,0.0,69,0.00,,---,0.00,VWS V14.01,2013-05-15 12:37:00,
2013-05-15 05:42:00,56.0,45.6,29.95,South,187,0.0,0.0,68,0.00,,---,0.00,VWS V14.01,2013-05-15 12:42:00,
2013-05-15 05:47:00,56.0,45.6,29.95,SSE,160,0.0,0.0,68,0.00,,---,0.00,VWS V14.01,2013-05-15 12:47:00,
2013-05-15 05:52:00,55.9,45.5,29.95,South,173,0.0,0.0,68,0.00,,---,0.00,VWS V14.01,2013-05-15 12:52:00,
2013-05-15 05:57:00,55.9,45.9,29.96,ESE,115,0.0,0.0,69,0.00,,---,0.00,VWS V14.01,2013-05-15 12:57:00,
2013-05-15 06:02:00,55.9,45.5,29.95,South,170,0.0,0.0,68,0.00,,---,0.00,VWS V14.01,2013-05-15 13:02:00,
2013-05-15 06:07:00,55.8,45.4,29.95,SSE,148,0.0,0.0,68,0.00,,---,0.00,VWS V14.01,2013-05-15 13:07:00,
2013-05-15 06:12:00,55.8,45.8,29.96,SE,144,0.0,0.0,69,0.00,,---,0.00,VWS V14.01,2013-05-15 13:12:00,
2013-05-15 06:17:00,55.7,45.7,29.96,SE,129,0.0,0.0,69,0.00,,---,0.00,VWS V14.01,2013-05-15 13:17:00,
2013-05-15 06:22:00,55.7,45.7,29.96,ESE,111,0.0,0.0,69,0.00,,---,0.00,VWS V14.01,2013-05-15 13:22:00,
2013-05-15 06:27:00,55.8,45.4,29.96,SSE,153,0.0,0.0,68,0.00,,---,0.00,VWS V14.01,2013-05-15 13:27:00,
2013-05-15 06:32:00,55.8,45.4,29.97,SSE,148,0.0,0.0,68,0.00,,---,0.00,VWS V14.01,2013-05-15 13:32:00,
2013-05-15 06:37:00,55.9,45.5,29.97,ESE,115,0.0,0.0,68,0.00,,---,0.00,VWS V14.01,2013-05-15 13:37:00,
2013-05-15 06:42:00,56.0,45.6,29.97,SE,138,1.0,2.0,68,0.00,,---,0.00,VWS V14.01,2013-05-15 13:42:00,
2013-05-15 06:47:00,56.0,46.0,29.97,SE,140,0.0,0.0,69,0.00,,---,0.00,VWS V14.01,2013-05-15 13:47:00,
2013-05-15 06:52:00,56.1,46.1,29.98,SSE,158,0.0,0.0,69,0.00,,---,0.00,VWS V14.01,2013-05-15 13:52:00,
2013-05-15 06:57:00,56.2,46.2,29.98,South,179,0.0,1.0,69,0.00,,---,0.00,VWS V14.01,2013-05-15 13:57:00,
2013-05-15 07:02:00,56.3,46.3,29.98,SE,138,0.0,0.0,69,0.00,,---,0.00,VWS V14.01,2013-05-15 14:02:00,
2013-05-15 07:07:00,56.3,45.9,29.98,SE,132,0.0,0.0,68,0.00,,---,0.00,VWS V14.01,2013-05-15 14:07:00,
2013-05-15 07:12:00,56.4,46.0,29.98,ESE,110,0.0,0.0,68,0.00,,---,0.00,VWS V14.01,2013-05-15 14:12:00,
2013-05-15 07:18:00,56.4,46.0,29.98,SSE,155,0.0,0.0,68,0.00,,---,0.00,VWS V14.01,2013-05-15 14:18:00,
2013-05-15 07:23:00,56.5,46.1,29.98,SE,130,0.0,0.0,68,0.00,,---,0.00,VWS V14.01,2013-05-15 14:23:00,
2013-05-15 07:28:00,56.5,46.1,29.98,ESE,118,0.0,1.0,68,0.00,,---,0.00,VWS V14.01,2013-05-15 14:28:00,
2013-05-15 07:33:00,56.6,46.2,29.98,SE,140,0.0,1.0,68,0.00,,---,0.00,VWS V14.01,2013-05-15 14:33:00,
2013-05-15 07:38:00,56.8,46.4,29.98,ESE,107,0.0,3.0,68,0.00,,---,0.00,VWS V14.01,2013-05-15 14:38:00,
2013-05-15 07:43:00,57.1,46.3,29.98,South,170,0.0,1.0,67,0.00,,---,0.00,VWS V14.01,2013-05-15 14:43:00,
2013-05-15 07:48:00,57.1,46.3,29.98,South,173,0.0,0.0,67,0.00,,---,0.00,VWS V14.01,2013-05-15 14:48:00,
2013-05-15 07:53:00,57.4,46.5,29.99,SSE,147,0.0,0.0,67,0.00,,---,0.00,VWS V14.01,2013-05-15 14:53:00,
2013-05-15 07:58:00,57.6,46.3,29.99,SSE,168,0.0,0.0,66,0.00,,---,0.00,VWS V14.01,2013-05-15 14:58:00,
2013-05-15 08:03:00,57.9,46.2,29.99,SE,130,0.0,0.0,65,0.00,,---,0.00,VWS V14.01,2013-05-15 15:03:00,
2013-05-15 08:08:00,58.0,46.3,29.99,South,181,0.0,1.0,65,0.00,,---,0.00,VWS V14.01,2013-05-15 15:08:00,
2013-05-15 08:13:00,58.2,46.1,29.99,South,180,0.0,0.0,64,0.00,,---,0.00,VWS V14.01,2013-05-15 15:13:00,
2013-05-15 08:18:00,58.4,46.7,29.99,SSE,155,0.0,0.0,65,0.00,,---,0.00,VWS V14.01,2013-05-15 15:18:00,
2013-05-15 08:23:00,58.6,46.5,29.99,SE,133,0.0,0.0,64,0.00,,---,0.00,VWS V14.01,2013-05-15 15:23:00,
2013-05-15 08:28:00,59.0,46.8,29.99,SSE,160,0.0,0.0,64,0.00,,---,0.00,VWS V14.01,2013-05-15 15:28:00,
2013-05-15 08:33:00,59.1,47.0,29.99,SE,128,0.0,2.0,64,0.00,,---,0.00,VWS V14.01,2013-05-15 15:33:00,
2013-05-15 08:38:00,59.6,47.0,29.99,SSW,199,0.0,2.0,63,0.00,,---,0.00,VWS V14.01,2013-05-15 15:38:00,
2013-05-15 08:43:00,59.8,47.6,29.99,South,183,0.0,1.0,64,0.00,,---,0.00,VWS V14.01,2013-05-15 15:43:00,
2013-05-15 08:48:00,59.9,47.3,29.99,SW,225,0.0,0.0,63,0.00,,---,0.00,VWS V14.01,2013-05-15 15:48:00,
2013-05-15 08:54:00,60.0,47.4,29.99,SW,225,0.0,0.0,63,0.00,,---,0.00,VWS V14.01,2013-05-15 15:54:00,
2013-05-15 08:59:00,60.4,47.8,30.00,SSE,161,0.0,0.0,63,0.00,,---,0.00,VWS V14.01,2013-05-15 15:59:00,
2013-05-15 09:04:00,60.9,47.8,30.00,SE,140,0.0,0.0,62,0.00,,---,0.00,VWS V14.01,2013-05-15 16:04:00,
2013-05-15 09:09:00,61.2,47.7,30.00,SSE,152,0.0,0.0,61,0.00,,---,0.00,VWS V14.01,2013-05-15 16:09:00,
2013-05-15 09:14:00,61.4,47.4,30.00,SE,134,0.0,0.0,60,0.00,,---,0.00,VWS V14.01,2013-05-15 16:14:00,
2013-05-15 09:19:00,61.8,47.8,30.00,SSE,150,0.0,0.0,60,0.00,,---,0.00,VWS V14.01,2013-05-15 16:19:00,
2013-05-15 09:24:00,62.3,48.2,30.00,South,186,0.0,0.0,60,0.00,,---,0.00,VWS V14.01,2013-05-15 16:24:00,
2013-05-15 09:29:00,62.7,48.2,30.00,ESE,119,0.0,0.0,59,0.00,,---,0.00,VWS V14.01,2013-05-15 16:29:00,
2013-05-15 09:34:00,63.2,48.7,30.00,SSW,197,0.0,0.0,59,0.00,,---,0.00,VWS V14.01,2013-05-15 16:34:00,
2013-05-15 09:39:00,63.5,48.9,30.00,South,172,0.0,0.0,59,0.00,,---,0.00,VWS V14.01,2013-05-15 16:39:00,
2013-05-15 09:44:00,63.9,48.4,30.00,SSE,158,0.0,0.0,57,0.00,,---,0.00,VWS V14.01,2013-05-15 16:44:00,
2013-05-15 09:49:00,64.2,48.7,30.00,SE,143,0.0,3.0,57,0.00,,---,0.00,VWS V14.01,2013-05-15 16:49:00,
2013-05-15 09:54:00,64.5,48.5,30.00,ESE,120,0.0,1.0,56,0.00,,---,0.00,VWS V14.01,2013-05-15 16:54:00,
2013-05-15 09:59:00,64.9,49.3,30.00,SE,139,0.0,0.0,57,0.00,,---,0.00,VWS V14.01,2013-05-15 16:59:00,
2013-05-15 10:04:00,65.5,49.4,30.00,SSE,162,0.0,0.0,56,0.00,,---,0.00,VWS V14.01,2013-05-15 17:04:00,
2013-05-15 10:09:00,65.8,48.7,30.00,South,170,0.0,0.0,54,0.00,,---,0.00,VWS V14.01,2013-05-15 17:09:00,
2013-05-15 10:14:00,65.6,49.0,30.00,WSW,238,0.0,0.0,55,0.00,,---,0.00,VWS V14.01,2013-05-15 17:14:00,
2013-05-15 10:19:00,65.8,49.2,30.00,SSW,197,0.0,0.0,55,0.00,,---,0.00,VWS V14.01,2013-05-15 17:19:00,
2013-05-15 10:24:00,66.2,49.1,30.00,SW,216,0.0,0.0,54,0.00,,---,0.00,VWS V14.01,2013-05-15 17:24:00,
2013-05-15 10:30:00,66.5,49.8,30.00,SSE,155,0.0,0.0,55,0.00,,---,0.00,VWS V14.01,2013-05-15 17:30:00,
2013-05-15 10:35:00,66.8,49.1,30.00,South,172,0.0,0.0,53,0.00,,---,0.00,VWS V14.01,2013-05-15 17:35:00,
2013-05-15 10:40:00,66.9,48.7,30.00,SE,136,0.0,0.0,52,0.00,,---,0.00,VWS V14.01,2013-05-15 17:40:00,
2013-05-15 10:45:00,67.2,49.0,30.01,SSW,192,0.0,0.0,52,0.00,,---,0.00,VWS V14.01,2013-05-15 17:45:00,
2013-05-15 10:50:00,67.3,49.1,30.01,SSW,192,0.0,0.0,52,0.00,,---,0.00,VWS V14.01,2013-05-15 17:50:00,
2013-05-15 10:55:00,67.5,48.8,30.01,SE,138,0.0,0.0,51,0.00,,---,0.00,VWS V14.01,2013-05-15 17:55:00,
2013-05-15 11:00:00,68.0,49.2,30.01,SE,133,0.0,0.0,51,0.00,,---,0.00,VWS V14.01,2013-05-15 18:00:00,
2013-05-15 11:05:00,68.4,49.1,30.01,SSW,192,0.0,0.0,50,0.00,,---,0.00,VWS V14.01,2013-05-15 18:05:00,
2013-05-15 11:10:00,68.8,48.9,30.01,South,169,0.0,0.0,49,0.00,,---,0.00,VWS V14.01,2013-05-15 18:10:00,
2013-05-15 11:15:00,69.2,49.8,30.01,SSE,155,0.0,0.0,50,0.00,,---,0.00,VWS V14.01,2013-05-15 18:15:00,
2013-05-15 11:21:00,69.5,50.1,30.01,South,170,0.0,0.0,50,0.00,,---,0.00,VWS V14.01,2013-05-15 18:21:00,
2013-05-15 11:26:00,69.9,49.9,30.01,SW,223,0.0,0.0,49,0.00,,---,0.00,VWS V14.01,2013-05-15 18:26:00,
2013-05-15 11:31:00,70.2,50.2,30.01,South,171,0.0,0.0,49,0.00,,---,0.00,VWS V14.01,2013-05-15 18:31:00,
2013-05-15 11:36:00,70.7,50.1,30.01,South,178,0.0,0.0,48,0.00,,---,0.00,VWS V14.01,2013-05-15 18:36:00,
2013-05-15 11:41:00,70.9,49.7,30.01,SSE,160,0.0,0.0,47,0.00,,---,0.00,VWS V14.01,2013-05-15 18:41:00,
2013-05-15 11:46:00,71.3,49.5,30.01,SSW,207,0.0,1.0,46,0.00,,---,0.00,VWS V14.01,2013-05-15 18:46:00,
2013-05-15 11:51:00,71.4,49.6,30.01,SSW,207,0.0,2.0,46,0.00,,---,0.00,VWS V14.01,2013-05-15 18:51:00,
2013-05-15 11:56:00,71.6,49.2,30.01,South,186,0.0,2.0,45,0.00,,---,0.00,VWS V14.01,2013-05-15 18:56:00,
2013-05-15 12:01:00,71.7,49.8,30.01,SSE,162,0.0,3.0,46,0.00,,---,0.00,VWS V14.01,2013-05-15 19:01:00,
2013-05-15 12:06:00,72.2,49.7,30.01,South,186,0.0,2.0,45,0.00,,---,0.00,VWS V14.01,2013-05-15 19:06:00,
2013-05-15 12:11:00,72.9,51.5,30.00,SSE,156,0.0,6.0,47,0.00,,---,0.00,VWS V14.01,2013-05-15 19:11:00,
2013-05-15 12:16:00,73.1,49.9,30.00,SSE,165,0.0,1.0,44,0.00,,---,0.00,VWS V14.01,2013-05-15 19:16:00,
2013-05-15 12:21:00,73.0,50.4,30.00,SSE,161,0.0,0.0,45,0.00,,---,0.00,VWS V14.01,2013-05-15 19:21:00,
2013-05-15 12:26:00,73.3,51.3,30.00,SSE,161,0.0,0.0,46,0.00,,---,0.00,VWS V14.01,2013-05-15 19:26:00,
2013-05-15 12:31:00,73.6,50.4,30.00,SSE,163,0.0,0.0,44,0.00,,---,0.00,VWS V14.01,2013-05-15 19:31:00,
2013-05-15 12:36:00,74.0,51.3,29.99,SSE,165,1.0,2.0,45,0.00,,---,0.00,VWS V14.01,2013-05-15 19:36:00,
2013-05-15 12:41:00,74.2,50.9,29.99,SW,227,0.0,0.0,44,0.00,,---,0.00,VWS V14.01,2013-05-15 19:41:00,
2013-05-15 12:46:00,74.1,50.8,29.99,SSW,193,0.0,1.0,44,0.00,,---,0.00,VWS V14.01,2013-05-15 19:46:00,
2013-05-15 12:52:00,74.3,50.4,29.99,SSW,203,0.0,0.0,43,0.00,,---,0.00,VWS V14.01,2013-05-15 19:52:00,
2013-05-15 12:57:00,74.4,51.1,29.99,SSE,167,1.0,4.0,44,0.00,,---,0.00,VWS V14.01,2013-05-15 19:57:00,
2013-05-15 13:02:00,74.4,51.1,29.99,WSW,242,0.0,0.0,44,0.00,,---,0.00,VWS V14.01,2013-05-15 20:02:00,
2013-05-15 13:07:00,74.4,50.5,29.99,SSW,193,0.0,0.0,43,0.00,,---,0.00,VWS V14.01,2013-05-15 20:07:00,
2013-05-15 13:12:00,74.5,50.6,29.99,South,191,0.0,0.0,43,0.00,,---,0.00,VWS V14.01,2013-05-15 20:12:00,
2013-05-15 13:17:00,74.9,50.3,29.99,South,173,0.0,1.0,42,0.00,,---,0.00,VWS V14.01,2013-05-15 20:17:00,
2013-05-15 13:22:00,75.1,51.7,29.99,SSE,167,2.0,4.0,44,0.00,,---,0.00,VWS V14.01,2013-05-15 20:22:00,
2013-05-15 13:27:00,75.6,50.9,29.99,South,173,0.0,6.0,42,0.00,,---,0.00,VWS V14.01,2013-05-15 20:27:00,
2013-05-15 13:32:00,75.7,51.6,29.99,SW,227,0.0,1.0,43,0.00,,---,0.00,VWS V14.01,2013-05-15 20:32:00,
2013-05-15 13:37:00,75.9,51.8,29.99,SSE,161,0.0,0.0,43,0.00,,---,0.00,VWS V14.01,2013-05-15 20:37:00,
2013-05-15 13:42:00,76.2,52.1,29.99,SE,143,0.0,0.0,43,0.00,,---,0.00,VWS V14.01,2013-05-15 20:42:00,
2013-05-15 13:47:00,76.1,50.0,29.99,SW,230,0.0,0.0,40,0.00,,---,0.00,VWS V14.01,2013-05-15 20:47:00,
2013-05-15 13:52:00,75.7,51.0,29.99,SSW,213,0.0,4.0,42,0.00,,---,0.00,VWS V14.01,2013-05-15 20:52:00,
2013-05-15 13:57:00,75.9,51.2,29.99,SSE,153,0.0,0.0,42,0.00,,---,0.00,VWS V14.01,2013-05-15 20:57:00,
2013-05-15 14:02:00,76.1,51.4,29.99,South,186,0.0,0.0,42,0.00,,---,0.00,VWS V14.01,2013-05-15 21:02:00,
2013-05-15 14:07:00,76.1,50.7,29.99,SSW,203,1.0,1.0,41,0.00,,---,0.00,VWS V14.01,2013-05-15 21:07:00,
2013-05-15 14:13:00,75.9,50.5,29.99,SSW,211,1.0,2.0,41,0.00,,---,0.00,VWS V14.01,2013-05-15 21:13:00,
2013-05-15 14:18:00,76.1,50.7,29.99,SSE,149,1.0,4.0,41,0.00,,---,0.00,VWS V14.01,2013-05-15 21:18:00,
2013-05-15 14:23:00,76.4,51.0,29.99,WSW,244,0.0,1.0,41,0.00,,---,0.00,VWS V14.01,2013-05-15 21:23:00,
2013-05-15 14:28:00,76.5,49.7,29.99,SSW,194,0.0,0.0,39,0.00,,---,0.00,VWS V14.01,2013-05-15 21:28:00,
2013-05-15 14:33:00,76.5,50.4,29.99,South,173,0.0,0.0,40,0.00,,---,0.00,VWS V14.01,2013-05-15 21:33:00,
2013-05-15 14:38:00,76.7,50.6,29.98,South,186,0.0,0.0,40,0.00,,---,0.00,VWS V14.01,2013-05-15 21:38:00,
2013-05-15 14:43:00,76.9,49.4,29.99,South,177,6.0,6.0,38,0.00,,---,0.00,VWS V14.01,2013-05-15 21:43:00,
2013-05-15 14:48:00,76.6,49.8,29.98,SW,236,0.0,1.0,39,0.00,,---,0.00,VWS V14.01,2013-05-15 21:48:00,
2013-05-15 14:53:00,76.9,50.8,29.98,South,171,0.0,1.0,40,0.00,,---,0.00,VWS V14.01,2013-05-15 21:53:00,
2013-05-15 14:59:00,77.2,50.3,29.98,SSE,157,0.0,0.0,39,0.00,,---,0.00,VWS V14.01,2013-05-15 21:59:00,
2013-05-15 15:04:00,77.4,49.8,29.98,SSW,192,0.0,3.0,38,0.00,,---,0.00,VWS V14.01,2013-05-15 22:04:00,
2013-05-15 15:09:00,77.3,50.4,29.97,SSE,166,0.0,0.0,39,0.00,,---,0.00,VWS V14.01,2013-05-15 22:09:00,
2013-05-15 15:14:00,77.5,49.9,29.97,SW,232,0.0,3.0,38,0.00,,---,0.00,VWS V14.01,2013-05-15 22:14:00,
2013-05-15 15:19:00,77.3,49.7,29.97,SSE,160,0.0,5.0,38,0.00,,---,0.00,VWS V14.01,2013-05-15 22:19:00,
2013-05-15 15:24:00,77.3,50.4,29.96,SE,138,0.0,4.0,39,0.00,,---,0.00,VWS V14.01,2013-05-15 22:24:00,
2013-05-15 15:29:00,77.6,50.0,29.97,South,191,2.0,3.0,38,0.00,,---,0.00,VWS V14.01,2013-05-15 22:29:00,
2013-05-15 15:34:00,77.9,49.6,29.96,ESE,121,1.0,1.0,37,0.00,,---,0.00,VWS V14.01,2013-05-15 22:34:00,
2013-05-15 15:39:00,77.9,49.6,29.96,SW,216,4.0,5.0,37,0.00,,---,0.00,VWS V14.01,2013-05-15 22:39:00,
2013-05-15 15:45:00,77.5,48.5,29.96,SSW,193,3.0,10.0,36,0.00,,---,0.00,VWS V14.01,2013-05-15 22:45:00,
2013-05-15 15:50:00,77.3,48.3,29.96,South,173,0.0,0.0,36,0.00,,---,0.00,VWS V14.01,2013-05-15 22:50:00,
2013-05-15 15:55:00,77.5,48.5,29.96,SE,124,2.0,5.0,36,0.00,,---,0.00,VWS V14.01,2013-05-15 22:55:00,
2013-05-15 16:00:00,77.7,49.4,29.96,SSW,198,4.0,5.0,37,0.00,,---,0.00,VWS V14.01,2013-05-15 23:00:00,
2013-05-15 16:05:00,77.7,49.4,29.95,SSW,198,4.0,6.0,37,0.00,,---,0.00,VWS V14.01,2013-05-15 23:05:00,
2013-05-15 16:10:00,77.9,49.6,29.95,South,180,0.0,1.0,37,0.00,,---,0.00,VWS V14.01,2013-05-15 23:10:00,
2013-05-15 16:15:00,78.1,49.7,29.95,South,189,1.0,1.0,37,0.00,,---,0.00,VWS V14.01,2013-05-15 23:15:00,
2013-05-15 16:20:00,78.1,50.5,29.95,South,187,4.0,4.0,38,0.00,,---,0.00,VWS V14.01,2013-05-15 23:20:00,
2013-05-15 16:25:00,78.1,49.7,29.95,SSE,149,2.0,6.0,37,0.00,,---,0.00,VWS V14.01,2013-05-15 23:25:00,
2013-05-15 16:30:00,78.0,50.4,29.95,South,188,5.0,5.0,38,0.00,,---,0.00,VWS V14.01,2013-05-15 23:30:00,
2013-05-15 16:35:00,78.1,50.5,29.95,SSE,155,0.0,2.0,38,0.00,,---,0.00,VWS V14.01,2013-05-15 23:35:00,
2013-05-15 16:40:00,78.4,50.7,29.95,South,176,1.0,1.0,38,0.00,,---,0.00,VWS V14.01,2013-05-15 23:40:00,
2013-05-15 16:45:00,78.5,50.8,29.95,SSE,153,0.0,1.0,38,0.00,,---,0.00,VWS V14.01,2013-05-15 23:45:00,
2013-05-15 16:50:00,78.5,50.8,29.95,SE,125,4.0,4.0,38,0.00,,---,0.00,VWS V14.01,2013-05-15 23:50:00,
2013-05-15 16:55:00,78.6,49.4,29.95,South,182,4.0,7.0,36,0.00,,---,0.00,VWS V14.01,2013-05-15 23:55:00,
2013-05-15 17:01:00,78.3,49.9,29.95,SSE,165,0.0,6.0,37,0.00,,---,0.00,VWS V14.01,2013-05-16 00:01:00,
2013-05-15 17:06:00,78.0,50.4,29.94,South,169,0.0,5.0,38,0.00,,---,0.00,VWS V14.01,2013-05-16 00:06:00,
2013-05-15 17:11:00,77.8,50.9,29.94,SSE,150,0.0,0.0,39,0.00,,---,0.00,VWS V14.01,2013-05-16 00:11:00,
2013-05-15 17:16:00,77.8,49.5,29.94,SSW,195,0.0,3.0,37,0.00,,---,0.00,VWS V14.01,2013-05-16 00:16:00,
2013-05-15 17:21:00,77.8,50.2,29.94,SE,131,0.0,1.0,38,0.00,,---,0.00,VWS V14.01,2013-05-16 00:21:00,
2013-05-15 17:26:00,78.0,50.4,29.94,SE,128,5.0,7.0,38,0.00,,---,0.00,VWS V14.01,2013-05-16 00:26:00,
2013-05-15 17:31:00,78.2,50.5,29.94,SE,126,0.0,3.0,38,0.00,,---,0.00,VWS V14.01,2013-05-16 00:31:00,
2013-05-15 17:36:00,78.4,50.7,29.94,SSW,200,1.0,1.0,38,0.00,,---,0.00,VWS V14.01,2013-05-16 00:36:00,
2013-05-15 17:41:00,78.4,50.7,29.94,SSW,199,0.0,0.0,38,0.00,,---,0.00,VWS V14.01,2013-05-16 00:41:00,
2013-05-15 17:46:00,78.5,50.8,29.94,SE,136,3.0,3.0,38,0.00,,---,0.00,VWS V14.01,2013-05-16 00:46:00,
2013-05-15 17:51:00,78.5,50.1,29.93,SSW,196,0.0,0.0,37,0.00,,---,0.00,VWS V14.01,2013-05-16 00:51:00,
2013-05-15 17:56:00,78.7,51.0,29.93,WSW,244,4.0,4.0,38,0.00,,---,0.00,VWS V14.01,2013-05-16 00:56:00,
2013-05-15 18:01:00,78.7,50.3,29.93,SSW,201,0.0,0.0,37,0.00,,---,0.00,VWS V14.01,2013-05-16 01:01:00,
2013-05-15 18:06:00,78.6,50.9,29.93,South,185,0.0,1.0,38,0.00,,---,0.00,VWS V14.01,2013-05-16 01:06:00,
2013-05-15 18:12:00,78.7,51.0,29.93,SSE,163,2.0,2.0,38,0.00,,---,0.00,VWS V14.01,2013-05-16 01:12:00,
2013-05-15 18:17:00,78.7,51.0,29.93,East,101,0.0,0.0,38,0.00,,---,0.00,VWS V14.01,2013-05-16 01:17:00,
2013-05-15 18:22:00,78.6,50.9,29.93,South,181,3.0,4.0,38,0.00,,---,0.00,VWS V14.01,2013-05-16 01:22:00,
2013-05-15 18:27:00,78.5,51.5,29.93,SSE,155,0.0,2.0,39,0.00,,---,0.00,VWS V14.01,2013-05-16 01:27:00,
2013-05-15 18:32:00,78.4,51.4,29.93,SSE,165,0.0,3.0,39,0.00,,---,0.00,VWS V14.01,2013-05-16 01:32:00,
2013-05-15 18:37:00,78.3,51.3,29.93,SSW,203,1.0,4.0,39,0.00,,---,0.00,VWS V14.01,2013-05-16 01:37:00,
2013-05-15 18:43:00,78.2,51.2,29.93,SE,144,2.0,9.0,39,0.00,,---,0.00,VWS V14.01,2013-05-16 01:43:00,
2013-05-15 18:48:00,77.8,51.6,29.93,SE,136,0.0,5.0,40,0.00,,---,0.00,VWS V14.01,2013-05-16 01:48:00,
2013-05-15 18:53:00,77.4,51.2,29.93,SE,127,4.0,6.0,40,0.00,,---,0.00,VWS V14.01,2013-05-16 01:53:00,
2013-05-15 18:58:00,77.0,51.5,29.93,SSW,195,2.0,3.0,41,0.00,,---,0.00,VWS V14.01,2013-05-16 01:58:00,
2013-05-15 19:03:00,76.6,51.2,29.93,South,172,6.0,6.0,41,0.00,,---,0.00,VWS V14.01,2013-05-16 02:03:00,
2013-05-15 19:08:00,76.3,51.5,29.92,South,186,2.0,2.0,42,0.00,,---,0.00,VWS V14.01,2013-05-16 02:08:00,
2013-05-15 19:13:00,75.9,51.8,29.93,South,178,3.0,4.0,43,0.00,,---,0.00,VWS V14.01,2013-05-16 02:13:00,
2013-05-15 19:18:00,75.7,51.6,29.92,South,180,3.0,4.0,43,0.00,,---,0.00,VWS V14.01,2013-05-16 02:18:00,
2013-05-15 19:23:00,75.3,51.9,29.92,ESE,115,3.0,3.0,44,0.00,,---,0.00,VWS V14.01,2013-05-16 02:23:00,
2013-05-15 19:28:00,75.1,51.7,29.93,South,184,1.0,2.0,44,0.00,,---,0.00,VWS V14.01,2013-05-16 02:28:00,
2013-05-15 19:33:00,74.6,51.9,29.93,South,179,0.0,0.0,45,0.00,,---,0.00,VWS V14.01,2013-05-16 02:33:00,
2013-05-15 19:38:00,74.1,51.4,29.93,SE,138,0.0,0.0,45,0.00,,---,0.00,VWS V14.01,2013-05-16 02:38:00,
2013-05-15 19:43:00,73.7,51.1,29.93,South,173,4.0,6.0,45,0.00,,---,0.00,VWS V14.01,2013-05-16 02:43:00,
2013-05-15 19:48:00,73.2,50.6,29.93,South,191,0.0,0.0,45,0.00,,---,0.00,VWS V14.01,2013-05-16 02:48:00,
2013-05-15 19:53:00,72.9,50.9,29.93,SSE,164,0.0,0.0,46,0.00,,---,0.00,VWS V14.01,2013-05-16 02:53:00,
2013-05-15 19:58:00,72.5,51.2,29.93,SE,140,0.0,0.0,47,0.00,,---,0.00,VWS V14.01,2013-05-16 02:58:00,
2013-05-15 20:04:00,72.2,50.9,29.93,SSE,160,3.0,3.0,47,0.00,,---,0.00,VWS V14.01,2013-05-16 03:04:00,
2013-05-15 20:09:00,71.9,50.6,29.93,ESE,116,0.0,4.0,47,0.00,,---,0.00,VWS V14.01,2013-05-16 03:09:00,
2013-05-15 20:14:00,71.3,50.0,29.93,SE,146,0.0,2.0,47,0.00,,---,0.00,VWS V14.01,2013-05-16 03:14:00,
2013-05-15 20:19:00,71.0,50.3,29.94,SE,133,0.0,0.0,48,0.00,,---,0.00,VWS V14.01,2013-05-16 03:19:00,
2013-05-15 20:24:00,70.6,51.1,29.94,SSE,159,0.0,2.0,50,0.00,,---,0.00,VWS V14.01,2013-05-16 03:24:00,
2013-05-15 20:29:00,70.4,50.3,29.94,SSE,148,0.0,4.0,49,0.00,,---,0.00,VWS V14.01,2013-05-16 03:29:00,
2013-05-15 20:34:00,70.2,50.2,29.94,SE,146,0.0,0.0,49,0.00,,---,0.00,VWS V14.01,2013-05-16 03:34:00,
2013-05-15 20:39:00,69.9,50.4,29.93,SSE,155,0.0,0.0,50,0.00,,---,0.00,VWS V14.01,2013-05-16 03:39:00,
2013-05-15 20:44:00,69.7,50.2,29.94,SE,145,0.0,0.0,50,0.00,,---,0.00,VWS V14.01,2013-05-16 03:44:00,
2013-05-15 20:49:00,69.5,50.1,29.93,SSE,150,0.0,0.0,50,0.00,,---,0.00,VWS V14.01,2013-05-16 03:49:00,
2013-05-15 20:54:00,69.3,50.4,29.93,SE,128,0.0,0.0,51,0.00,,---,0.00,VWS V14.01,2013-05-16 03:54:00,
2013-05-15 20:59:00,69.2,50.3,29.94,SE,130,3.0,3.0,51,0.00,,---,0.00,VWS V14.01,2013-05-16 03:59:00,
2013-05-15 21:01:00,69.1,50.2,29.94,SE,128,0.0,0.0,51,0.00,,---,0.00,VWS V14.01,2013-05-16 04:01:00,
2013-05-15 21:06:00,68.9,50.0,29.93,SSE,150,0.0,1.0,51,0.00,,---,0.00,VWS V14.01,2013-05-16 04:06:00,
2013-05-15 21:11:00,68.8,50.5,29.94,SSE,155,0.0,3.0,52,0.00,,---,0.00,VWS V14.01,2013-05-16 04:11:00,
2013-05-15 21:16:00,68.5,50.2,29.93,SE,135,0.0,2.0,52,0.00,,---,0.00,VWS V14.01,2013-05-16 04:16:00,
2013-05-15 21:21:00,68.3,50.0,29.93,SE,138,0.0,0.0,52,0.00,,---,0.00,VWS V14.01,2013-05-16 04:21:00,
2013-05-15 21:26:00,68.0,50.2,29.94,SSE,165,3.0,3.0,53,0.00,,---,0.00,VWS V14.01,2013-05-16 04:26:00,
2013-05-15 21:31:00,67.8,49.5,29.94,South,173,0.0,4.0,52,0.00,,---,0.00,VWS V14.01,2013-05-16 04:31:00,
2013-05-15 21:36:00,67.4,49.7,29.94,SSE,159,4.0,5.0,53,0.00,,---,0.00,VWS V14.01,2013-05-16 04:36:00,
2013-05-15 21:41:00,67.2,50.0,29.94,ESE,123,0.0,0.0,54,0.00,,---,0.00,VWS V14.01,2013-05-16 04:41:00,
2013-05-15 21:46:00,67.0,50.3,29.95,South,177,0.0,6.0,55,0.00,,---,0.00,VWS V14.01,2013-05-16 04:46:00,
2013-05-15 21:51:00,66.7,50.0,29.95,SE,143,3.0,4.0,55,0.00,,---,0.00,VWS V14.01,2013-05-16 04:51:00,
2013-05-15 21:56:00,66.5,49.8,29.95,SE,140,0.0,0.0,55,0.00,,---,0.00,VWS V14.01,2013-05-16 04:56:00,
2013-05-15 22:01:00,66.3,50.2,29.95,South,184,5.0,5.0,56,0.00,,---,0.00,VWS V14.01,2013-05-16 05:01:00,
2013-05-15 22:06:00,66.0,50.3,29.95,SE,142,4.0,6.0,57,0.00,,---,0.00,VWS V14.01,2013-05-16 05:06:00,
2013-05-15 22:11:00,65.8,50.2,29.95,SE,143,2.0,7.0,57,0.00,,---,0.00,VWS V14.01,2013-05-16 05:11:00,
2013-05-15 22:16:00,65.6,50.4,29.95,SSE,166,0.0,4.0,58,0.00,,---,0.00,VWS V14.01,2013-05-16 05:16:00,
2013-05-15 22:21:00,65.4,50.2,29.95,SE,132,0.0,5.0,58,0.00,,---,0.00,VWS V14.01,2013-05-16 05:21:00,
2013-05-15 22:26:00,65.2,50.1,29.95,SSE,162,1.0,5.0,58,0.00,,---,0.00,VWS V14.01,2013-05-16 05:26:00,
2013-05-15 22:31:00,65.0,49.9,29.95,South,176,0.0,5.0,58,0.00,,---,0.00,VWS V14.01,2013-05-16 05:31:00,
2013-05-15 22:36:00,64.9,50.2,29.95,SSE,148,0.0,1.0,59,0.00,,---,0.00,VWS V14.01,2013-05-16 05:36:00,
2013-05-15 22:41:00,64.7,49.6,29.94,SE,136,5.0,5.0,58,0.00,,---,0.00,VWS V14.01,2013-05-16 05:41:00,
2013-05-15 22:46:00,64.5,49.9,29.94,SSE,160,0.0,0.0,59,0.00,,---,0.00,VWS V14.01,2013-05-16 05:46:00,
2013-05-15 22:51:00,64.4,49.8,29.95,SSE,150,0.0,2.0,59,0.00,,---,0.00,VWS V14.01,2013-05-16 05:51:00,
2013-05-15 22:56:00,64.3,49.7,29.94,SSE,159,0.0,1.0,59,0.00,,---,0.00,VWS V14.01,2013-05-16 05:56:00,
2013-05-15 23:01:00,64.1,49.5,29.95,SSE,157,0.0,0.0,59,0.00,,---,0.00,VWS V14.01,2013-05-16 06:01:00,
2013-05-15 23:06:00,64.0,49.8,29.95,SSE,148,0.0,0.0,60,0.00,,---,0.00,VWS V14.01,2013-05-16 06:06:00,
2013-05-15 23:11:00,63.9,49.8,29.95,SE,124,0.0,0.0,60,0.00,,---,0.00,VWS V14.01,2013-05-16 06:11:00,
2013-05-15 23:16:00,63.7,49.6,29.94,SE,139,0.0,0.0,60,0.00,,---,0.00,VWS V14.01,2013-05-16 06:16:00,
2013-05-15 23:21:00,63.5,49.8,29.95,SE,136,0.0,0.0,61,0.00,,---,0.00,VWS V14.01,2013-05-16 06:21:00,
2013-05-15 23:26:00,63.3,50.1,29.95,SSE,150,0.0,0.0,62,0.00,,---,0.00,VWS V14.01,2013-05-16 06:26:00,
2013-05-15 23:31:00,63.2,49.5,29.95,SSE,160,0.0,0.0,61,0.00,,---,0.00,VWS V14.01,2013-05-16 06:31:00,
2013-05-15 23:36:00,63.1,49.9,29.95,ESE,120,0.0,0.0,62,0.00,,---,0.00,VWS V14.01,2013-05-16 06:36:00,
2013-05-15 23:41:00,62.9,49.7,29.95,SSE,158,0.0,0.0,62,0.00,,---,0.00,VWS V14.01,2013-05-16 06:41:00,
2013-05-15 23:46:00,62.8,49.6,29.95,SE,134,0.0,0.0,62,0.00,,---,0.00,VWS V14.01,2013-05-16 06:46:00,
2013-05-15 23:51:00,62.6,49.8,29.95,SE,142,0.0,0.0,63,0.00,,---,0.00,VWS V14.01,2013-05-16 06:51:00,
2013-05-15 23:56:00,62.4,49.7,29.95,SSE,148,0.0,0.0,63,0.00,,---,0.00,VWS V14.01,2013-05-16 06:56:00,